ANA658 RJOB-RJTT

Flight info

Callsign ANA658
Flight time 0h 57m
Altitude 27000
Route OLIVE HYOGO SANDA Y289 SHTLE Y71 XAC
Aircraft B738/M-SABDFGRVYL/LB2

Departure

Time 2026-05-06 09:58
Airport Okayama Momotaro Airport (RJOB)

Arrival

Time 2026-05-06 10:55
Airport Tokyo Haneda International Airport (RJTT)
Time Latitude Longitude Altitude Speed Heading
2026-05-06 09:44 34.75975 133.85390 793 ft 0 kts 329°
2026-05-06 09:49 34.75969 133.85394 793 ft 2 kts 329°
2026-05-06 09:49 34.75956 133.85403 793 ft 2 kts 329°
2026-05-06 09:49 34.75944 133.85413 793 ft 2 kts 329°
2026-05-06 09:50 34.75930 133.85422 793 ft 2 kts 329°
2026-05-06 09:50 34.75919 133.85434 793 ft 2 kts 307°
2026-05-06 09:50 34.75911 133.85449 793 ft 2 kts 292°
2026-05-06 09:50 34.75908 133.85467 793 ft 2 kts 276°
2026-05-06 09:51 34.75908 133.85486 793 ft 2 kts 259°
2026-05-06 09:51 34.75912 133.85503 793 ft 2 kts 243°
2026-05-06 09:51 34.75921 133.85518 793 ft 1 kts 238°
2026-05-06 09:51 34.75922 133.85522 793 ft 0 kts 240°
2026-05-06 09:54 34.75922 133.85521 793 ft 0 kts 240°
2026-05-06 09:54 34.75896 133.85506 793 ft 8 kts 201°
2026-05-06 09:54 34.75829 133.85428 793 ft 18 kts 240°
2026-05-06 09:54 34.75747 133.85261 793 ft 27 kts 239°
2026-05-06 09:55 34.75643 133.85048 793 ft 29 kts 239°
2026-05-06 09:55 34.75539 133.84837 793 ft 28 kts 239°
2026-05-06 09:55 34.75436 133.84627 793 ft 28 kts 239°
2026-05-06 09:55 34.75335 133.84421 793 ft 28 kts 239°
2026-05-06 09:56 34.75236 133.84219 793 ft 26 kts 239°
2026-05-06 09:56 34.75152 133.84073 793 ft 15 kts 207°
2026-05-06 09:56 34.75066 133.84103 793 ft 13 kts 148°
2026-05-06 09:56 34.75017 133.84163 793 ft 8 kts 86°
2026-05-06 09:57 34.75028 133.84190 793 ft 3 kts 58°
2026-05-06 09:57 34.75090 133.84315 793 ft 46 kts 59°
2026-05-06 09:57 34.75382 133.84909 793 ft 114 kts 59°
2026-05-06 09:57 34.75885 133.85930 815 ft 165 kts 60°
2026-05-06 09:58 34.76472 133.87080 1536 ft 159 kts 60°
2026-05-06 09:58 34.77039 133.88223 2199 ft 162 kts 62°
2026-05-06 09:58 34.77626 133.89442 2721 ft 172 kts 61°
2026-05-06 09:58 34.78248 133.90718 3212 ft 183 kts 61°
2026-05-06 09:59 34.78909 133.92084 3655 ft 196 kts 63°
2026-05-06 09:59 34.79342 133.93732 4013 ft 215 kts 89°
2026-05-06 09:59 34.79203 133.95578 4466 ft 229 kts 100°
2026-05-06 09:59 34.78966 133.97583 4922 ft 247 kts 98°
2026-05-06 10:00 34.78779 133.99715 5421 ft 263 kts 97°
2026-05-06 10:00 34.78618 134.01971 5953 ft 277 kts 96°
2026-05-06 10:00 34.78456 134.04355 6600 ft 286 kts 96°
2026-05-06 10:00 34.78290 134.06769 7411 ft 289 kts 96°
2026-05-06 10:01 34.78120 134.09177 8206 ft 292 kts 96°
2026-05-06 10:01 34.77944 134.11644 8984 ft 297 kts 96°
2026-05-06 10:01 34.77762 134.14156 9769 ft 301 kts 95°
2026-05-06 10:01 34.77576 134.16716 10549 ft 307 kts 95°
2026-05-06 10:02 34.77382 134.19368 11036 ft 324 kts 95°
2026-05-06 10:02 34.77179 134.22122 11505 ft 339 kts 96°
2026-05-06 10:02 34.76963 134.25064 11982 ft 355 kts 95°
2026-05-06 10:02 34.76741 134.28087 12487 ft 369 kts 95°
2026-05-06 10:03 34.76506 134.31262 12929 ft 384 kts 95°
2026-05-06 10:03 34.76265 134.34521 13615 ft 391 kts 95°
2026-05-06 10:03 34.76020 134.37828 14335 ft 398 kts 95°
2026-05-06 10:03 34.75801 134.41199 14987 ft 406 kts 93°
2026-05-06 10:04 34.75766 134.44624 15762 ft 410 kts 87°
2026-05-06 10:04 34.76052 134.48105 16482 ft 415 kts 80°
2026-05-06 10:04 34.76575 134.51523 17182 ft 419 kts 77°
2026-05-06 10:04 34.77231 134.54980 17800 ft 426 kts 75°
2026-05-06 10:05 34.77953 134.58527 18450 ft 432 kts 75°
2026-05-06 10:05 34.78685 134.62085 18983 ft 440 kts 75°
2026-05-06 10:05 34.79410 134.65677 19653 ft 444 kts 76°
2026-05-06 10:05 34.80136 134.69354 20255 ft 449 kts 76°
2026-05-06 10:06 34.80859 134.73079 20791 ft 455 kts 76°
2026-05-06 10:06 34.81587 134.76863 21274 ft 463 kts 76°
2026-05-06 10:06 34.82312 134.80666 21878 ft 467 kts 77°
2026-05-06 10:06 34.83040 134.84508 22304 ft 474 kts 77°
2026-05-06 10:07 34.83779 134.88423 22801 ft 479 kts 77°
2026-05-06 10:07 34.84524 134.92386 23338 ft 484 kts 77°
2026-05-06 10:07 34.85281 134.96420 23820 ft 489 kts 77°
2026-05-06 10:07 34.86037 135.00449 24230 ft 495 kts 78°
2026-05-06 10:08 34.86819 135.04527 24693 ft 501 kts 77°
2026-05-06 10:08 34.87634 135.08697 25092 ft 508 kts 77°
2026-05-06 10:08 34.88472 135.12936 25431 ft 516 kts 78°
2026-05-06 10:08 34.89303 135.17129 25886 ft 520 kts 78°
2026-05-06 10:09 34.90155 135.21428 26285 ft 526 kts 78°
2026-05-06 10:09 34.91018 135.25795 26692 ft 532 kts 78°
2026-05-06 10:09 34.91840 135.30212 27071 ft 536 kts 81°
2026-05-06 10:09 34.92450 135.34691 27132 ft 539 kts 86°
2026-05-06 10:10 34.92719 135.39201 27118 ft 531 kts 91°
2026-05-06 10:10 34.92734 135.43724 27119 ft 528 kts 95°
2026-05-06 10:10 34.92579 135.48193 27121 ft 530 kts 98°
2026-05-06 10:10 34.92337 135.52634 27114 ft 530 kts 98°
2026-05-06 10:11 34.92050 135.57135 27114 ft 528 kts 99°
2026-05-06 10:11 34.91750 135.61589 27113 ft 528 kts 100°
2026-05-06 10:11 34.91447 135.66029 27113 ft 529 kts 100°
2026-05-06 10:11 34.91145 135.70511 27109 ft 528 kts 100°
2026-05-06 10:12 34.90851 135.74963 27110 ft 531 kts 99°
2026-05-06 10:12 34.90567 135.79393 27115 ft 530 kts 99°
2026-05-06 10:12 34.90282 135.83902 27112 ft 533 kts 100°
2026-05-06 10:12 34.90004 135.88362 27115 ft 530 kts 100°
2026-05-06 10:13 34.89728 135.92839 27118 ft 532 kts 99°
2026-05-06 10:13 34.89453 135.97308 27116 ft 531 kts 99°
2026-05-06 10:13 34.89179 136.01770 27118 ft 530 kts 99°
2026-05-06 10:13 34.88904 136.06264 27120 ft 530 kts 99°
2026-05-06 10:14 34.88631 136.10700 27122 ft 530 kts 100°
2026-05-06 10:14 34.88354 136.15176 27121 ft 531 kts 99°
2026-05-06 10:14 34.88074 136.19670 27121 ft 529 kts 99°
2026-05-06 10:14 34.87792 136.24158 27119 ft 534 kts 99°
2026-05-06 10:15 34.87509 136.28627 27121 ft 529 kts 100°
2026-05-06 10:15 34.87226 136.33061 27120 ft 531 kts 99°
2026-05-06 10:15 34.86934 136.37581 27120 ft 531 kts 99°
2026-05-06 10:15 34.86645 136.42030 27123 ft 534 kts 99°
2026-05-06 10:16 34.86350 136.46506 27118 ft 530 kts 100°
2026-05-06 10:16 34.86057 136.50957 27118 ft 530 kts 99°
2026-05-06 10:16 34.85755 136.55476 27118 ft 531 kts 99°
2026-05-06 10:16 34.85458 136.59912 27118 ft 532 kts 99°
2026-05-06 10:17 34.85152 136.64442 27117 ft 533 kts 99°
2026-05-06 10:17 34.84852 136.68918 27116 ft 529 kts 100°
2026-05-06 10:17 34.84553 136.73379 27117 ft 532 kts 100°
2026-05-06 10:17 34.84251 136.77863 27119 ft 531 kts 99°
2026-05-06 10:18 34.83951 136.82298 27118 ft 527 kts 101°
2026-05-06 10:18 34.83647 136.86743 27122 ft 531 kts 100°
2026-05-06 10:18 34.83338 136.91205 27119 ft 530 kts 100°
2026-05-06 10:18 34.83028 136.95648 27121 ft 528 kts 101°
2026-05-06 10:19 34.82658 137.00061 27117 ft 531 kts 102°
2026-05-06 10:19 34.82197 137.04515 27116 ft 528 kts 103°
2026-05-06 10:19 34.81696 137.08925 27120 ft 525 kts 104°
2026-05-06 10:19 34.81169 137.13351 27118 ft 527 kts 104°
2026-05-06 10:20 34.80639 137.17731 27122 ft 527 kts 104°
2026-05-06 10:20 34.80107 137.22151 27120 ft 528 kts 103°
2026-05-06 10:20 34.79585 137.26533 27121 ft 528 kts 104°
2026-05-06 10:20 34.79066 137.30934 27120 ft 529 kts 104°
2026-05-06 10:21 34.78560 137.35312 27124 ft 526 kts 103°
2026-05-06 10:21 34.78051 137.39717 27122 ft 526 kts 103°
2026-05-06 10:21 34.77539 137.44145 27119 ft 529 kts 103°
2026-05-06 10:21 34.77034 137.48567 27118 ft 528 kts 103°
2026-05-06 10:22 34.76530 137.52982 27116 ft 529 kts 103°
2026-05-06 10:22 34.76025 137.57384 27112 ft 524 kts 103°
2026-05-06 10:22 34.75519 137.61783 27113 ft 526 kts 104°
2026-05-06 10:22 34.75013 137.66130 27113 ft 524 kts 104°
2026-05-06 10:23 34.74505 137.70535 27114 ft 526 kts 104°
2026-05-06 10:23 34.74040 137.74957 27116 ft 527 kts 103°
2026-05-06 10:23 34.73611 137.79347 27111 ft 528 kts 102°
2026-05-06 10:23 34.73201 137.83771 27116 ft 526 kts 102°
2026-05-06 10:24 34.72799 137.88199 27119 ft 526 kts 102°
2026-05-06 10:24 34.72396 137.92621 27119 ft 526 kts 102°
2026-05-06 10:24 34.71989 137.97026 27119 ft 524 kts 102°
2026-05-06 10:24 34.71589 138.01416 27120 ft 527 kts 101°
2026-05-06 10:25 34.71323 138.05881 27123 ft 531 kts 98°
2026-05-06 10:25 34.71220 138.10338 27123 ft 531 kts 95°
2026-05-06 10:25 34.71222 138.14847 27120 ft 532 kts 94°
2026-05-06 10:25 34.71275 138.19336 27122 ft 533 kts 93°
2026-05-06 10:26 34.71348 138.23828 27122 ft 532 kts 93°
2026-05-06 10:26 34.71422 138.28296 27121 ft 530 kts 94°
2026-05-06 10:26 34.71485 138.32750 27119 ft 530 kts 94°
2026-05-06 10:26 34.71531 138.37203 27117 ft 532 kts 94°
2026-05-06 10:27 34.71559 138.41690 27118 ft 532 kts 94°
2026-05-06 10:27 34.71574 138.46167 27114 ft 529 kts 94°
2026-05-06 10:27 34.71579 138.50635 27116 ft 533 kts 95°
2026-05-06 10:27 34.71579 138.55130 27112 ft 527 kts 94°
2026-05-06 10:28 34.71579 138.59535 27112 ft 528 kts 94°
2026-05-06 10:28 34.71577 138.64004 27110 ft 529 kts 95°
2026-05-06 10:28 34.71574 138.68489 27112 ft 535 kts 95°
2026-05-06 10:28 34.71566 138.73006 27008 ft 543 kts 95°
2026-05-06 10:29 34.71562 138.77579 26455 ft 541 kts 95°
2026-05-06 10:29 34.71561 138.82104 25960 ft 531 kts 95°
2026-05-06 10:29 34.71557 138.86557 25015 ft 531 kts 95°
2026-05-06 10:29 34.71547 138.91019 23941 ft 533 kts 95°
2026-05-06 10:30 34.71532 138.95499 22860 ft 527 kts 96°
2026-05-06 10:30 34.71518 138.99889 22350 ft 516 kts 95°
2026-05-06 10:30 34.71502 139.04217 22119 ft 506 kts 95°
2026-05-06 10:30 34.71480 139.08475 22113 ft 508 kts 95°
2026-05-06 10:31 34.71454 139.12732 22112 ft 510 kts 95°
2026-05-06 10:31 34.71428 139.17042 22121 ft 512 kts 95°
2026-05-06 10:31 34.71407 139.21352 21973 ft 511 kts 95°
2026-05-06 10:31 34.71388 139.25661 21705 ft 511 kts 95°
2026-05-06 10:32 34.71358 139.29996 21103 ft 508 kts 94°
2026-05-06 10:32 34.71335 139.34206 20398 ft 504 kts 94°
2026-05-06 10:32 34.71483 139.38460 19645 ft 502 kts 88°
2026-05-06 10:32 34.72096 139.42583 18879 ft 493 kts 75°
2026-05-06 10:33 34.73327 139.46349 18152 ft 479 kts 63°
2026-05-06 10:33 34.74857 139.49945 17403 ft 476 kts 60°
2026-05-06 10:33 34.76469 139.53433 16652 ft 473 kts 58°
2026-05-06 10:33 34.78104 139.56859 15883 ft 464 kts 58°
2026-05-06 10:34 34.79688 139.60179 15155 ft 450 kts 59°
2026-05-06 10:34 34.81235 139.63435 14445 ft 443 kts 59°
2026-05-06 10:34 34.82899 139.66528 13699 ft 440 kts 51°
2026-05-06 10:34 34.85012 139.69170 13193 ft 429 kts 37°
2026-05-06 10:35 34.87521 139.71036 12979 ft 420 kts 21°
2026-05-06 10:35 34.90276 139.72310 12985 ft 424 kts 16°
2026-05-06 10:35 34.93089 139.73438 12982 ft 422 kts 15°
2026-05-06 10:35 34.95860 139.74524 12985 ft 423 kts 15°
2026-05-06 10:36 34.98648 139.75801 12985 ft 425 kts 22°
2026-05-06 10:36 35.01138 139.77728 12983 ft 429 kts 37°
2026-05-06 10:36 35.03387 139.80206 12987 ft 431 kts 43°
2026-05-06 10:36 35.05493 139.82873 12983 ft 431 kts 46°
2026-05-06 10:37 35.07539 139.85548 12982 ft 428 kts 46°
2026-05-06 10:37 35.09582 139.88188 12988 ft 430 kts 45°
2026-05-06 10:37 35.11673 139.90832 12938 ft 431 kts 44°
2026-05-06 10:37 35.13752 139.93411 12507 ft 421 kts 44°
2026-05-06 10:38 35.15791 139.95903 11541 ft 416 kts 43°
2026-05-06 10:38 35.17828 139.98367 10831 ft 402 kts 43°
2026-05-06 10:38 35.19755 140.00685 10740 ft 373 kts 43°
2026-05-06 10:38 35.21547 140.02832 10667 ft 354 kts 43°
2026-05-06 10:39 35.23254 140.04877 10558 ft 339 kts 43°
2026-05-06 10:39 35.24927 140.06888 10420 ft 327 kts 43°
2026-05-06 10:39 35.26503 140.08784 10280 ft 316 kts 42°
2026-05-06 10:39 35.28047 140.10646 10118 ft 306 kts 43°
2026-05-06 10:40 35.29557 140.12465 9802 ft 303 kts 43°
2026-05-06 10:40 35.31060 140.14269 9435 ft 303 kts 43°
2026-05-06 10:40 35.32561 140.16071 9077 ft 302 kts 43°
2026-05-06 10:40 35.34053 140.17871 8721 ft 300 kts 43°
2026-05-06 10:41 35.35543 140.19652 8366 ft 299 kts 41°
2026-05-06 10:41 35.37215 140.21175 8030 ft 293 kts 24°
2026-05-06 10:41 35.39104 140.21729 7960 ft 277 kts 354°
2026-05-06 10:41 35.41021 140.21403 7969 ft 278 kts 345°
2026-05-06 10:42 35.42909 140.20906 7969 ft 275 kts 344°
2026-05-06 10:42 35.44785 140.20428 7967 ft 277 kts 345°
2026-05-06 10:42 35.46696 140.19983 7964 ft 276 kts 346°
2026-05-06 10:42 35.48588 140.19566 7967 ft 278 kts 346°
2026-05-06 10:43 35.50497 140.19154 7859 ft 272 kts 346°
2026-05-06 10:43 35.52338 140.18761 7586 ft 269 kts 346°
2026-05-06 10:43 35.54174 140.18365 7262 ft 268 kts 346°
2026-05-06 10:44 35.57845 140.17564 6611 ft 267 kts 346°
2026-05-06 10:44 35.59665 140.17166 6291 ft 266 kts 347°
2026-05-06 10:44 35.61504 140.16763 5965 ft 266 kts 347°
2026-05-06 10:44 35.63321 140.16367 5642 ft 265 kts 347°
2026-05-06 10:45 35.65140 140.15967 5324 ft 268 kts 347°
2026-05-06 10:45 35.66978 140.15521 5009 ft 269 kts 343°
2026-05-06 10:45 35.68722 140.14766 4962 ft 263 kts 333°
2026-05-06 10:45 35.70400 140.13806 4965 ft 267 kts 330°
2026-05-06 10:46 35.72071 140.12808 4962 ft 261 kts 331°
2026-05-06 10:46 35.73675 140.11881 4963 ft 247 kts 332°
2026-05-06 10:46 35.75211 140.11011 4963 ft 234 kts 331°
2026-05-06 10:46 35.76667 140.10187 4965 ft 226 kts 332°
2026-05-06 10:47 35.78088 140.09381 4966 ft 224 kts 332°
2026-05-06 10:47 35.79506 140.08574 4965 ft 226 kts 331°
2026-05-06 10:47 35.80896 140.07658 4961 ft 223 kts 320°
2026-05-06 10:47 35.81861 140.06230 4962 ft 214 kts 287°
2026-05-06 10:48 35.82050 140.04469 4966 ft 207 kts 262°
2026-05-06 10:48 35.81758 140.02751 4961 ft 205 kts 247°
2026-05-06 10:48 35.81179 140.01152 4962 ft 204 kts 242°
2026-05-06 10:48 35.80514 139.99582 4963 ft 205 kts 239°
2026-05-06 10:49 35.79777 139.98096 4961 ft 202 kts 232°
2026-05-06 10:49 35.78830 139.96826 4966 ft 203 kts 220°
2026-05-06 10:49 35.77708 139.95737 4964 ft 204 kts 216°
2026-05-06 10:49 35.76545 139.94711 4848 ft 204 kts 215°
2026-05-06 10:50 35.75381 139.93701 4539 ft 208 kts 215°
2026-05-06 10:50 35.74179 139.92665 4230 ft 209 kts 214°
2026-05-06 10:50 35.72989 139.91640 3937 ft 209 kts 214°
2026-05-06 10:50 35.71807 139.90622 3662 ft 205 kts 214°
2026-05-06 10:51 35.70639 139.89619 3363 ft 203 kts 214°
2026-05-06 10:51 35.69494 139.88637 3085 ft 200 kts 214°
2026-05-06 10:51 35.68368 139.87666 2815 ft 195 kts 213°
2026-05-06 10:51 35.67269 139.86722 2550 ft 191 kts 213°
2026-05-06 10:52 35.66196 139.85803 2296 ft 187 kts 213°
2026-05-06 10:52 35.65145 139.84901 2042 ft 174 kts 213°
2026-05-06 10:52 35.64191 139.84080 1825 ft 160 kts 213°
2026-05-06 10:52 35.63302 139.83319 1600 ft 150 kts 212°
2026-05-06 10:53 35.62467 139.82603 1433 ft 142 kts 212°
2026-05-06 10:53 35.61679 139.81928 1214 ft 136 kts 213°
2026-05-06 10:53 35.60891 139.81255 1041 ft 137 kts 213°
2026-05-06 10:53 35.60106 139.80577 855 ft 137 kts 213°
2026-05-06 10:54 35.59326 139.79915 676 ft 136 kts 213°
2026-05-06 10:54 35.58547 139.79242 487 ft 137 kts 214°
2026-05-06 10:54 35.57767 139.78589 296 ft 135 kts 213°
2026-05-06 10:54 35.56999 139.77930 140 ft 134 kts 213°
2026-05-06 10:55 35.56227 139.77264 29 ft 128 kts 214°
2026-05-06 10:55 35.55672 139.76788 28 ft 66 kts 215°
2026-05-06 10:55 35.55362 139.76531 28 ft 43 kts 206°
2026-05-06 10:55 35.55200 139.76465 28 ft 16 kts 190°
2026-05-06 10:56 35.55141 139.76453 28 ft 6 kts 189°
2026-05-06 10:56 35.55082 139.76469 28 ft 14 kts 131°
2026-05-06 10:56 35.55102 139.76569 28 ft 14 kts 35°
2026-05-06 10:56 35.55197 139.76651 28 ft 20 kts 34°
2026-05-06 10:57 35.55347 139.76779 28 ft 30 kts 35°
2026-05-06 10:57 35.55527 139.76935 28 ft 32 kts 36°
2026-05-06 10:57 35.55711 139.77092 28 ft 31 kts 35°
2026-05-06 10:57 35.55880 139.77237 28 ft 18 kts 35°
2026-05-06 10:58 35.55955 139.77350 28 ft 18 kts 60°
2026-05-06 10:58 35.56030 139.77510 28 ft 25 kts 60°
2026-05-06 10:58 35.56129 139.77718 28 ft 28 kts 60°
2026-05-06 10:58 35.56217 139.77902 28 ft 22 kts 58°
2026-05-06 10:59 35.56292 139.78059 28 ft 19 kts 60°
2026-05-06 10:59 35.56343 139.78181 28 ft 13 kts 89°
2026-05-06 10:59 35.56274 139.78258 28 ft 15 kts 151°
2026-05-06 10:59 35.56160 139.78339 28 ft 22 kts 150°
2026-05-06 11:00 35.56018 139.78441 28 ft 23 kts 149°
2026-05-06 11:00 35.55923 139.78490 28 ft 9 kts 199°
2026-05-06 11:00 35.55881 139.78435 28 ft 6 kts 240°
2026-05-06 11:00 35.55871 139.78413 28 ft 2 kts 240°
2026-05-06 11:01 35.55868 139.78406 28 ft 0 kts 240°